LNI3960 WIMM-WICC

Flight info

Callsign LNI3960
Flight time N/A
Altitude 35000
Route OMBES1A OMBES T5 HLM HLM1F
Aircraft B738/M-SDE2E3FGHIRWXY/LB1

Departure

Time N/A
Airport Kualanamu International Airport (WIMM)

Arrival

Time 2026-04-16 13:26
Airport Husein Sastranegara International Airport (WICC)
Time Latitude Longitude Altitude Speed Heading
2026-04-16 11:42 2.41202 100.01798 28121 ft 494 kts 132°
2026-04-16 11:42 2.39949 100.03275 28228 ft 495 kts 132°
2026-04-16 11:42 2.36992 100.06758 28473 ft 497 kts 132°
2026-04-16 11:43 2.34718 100.09435 28654 ft 498 kts 132°
2026-04-16 11:43 2.32502 100.12043 28822 ft 499 kts 132°
2026-04-16 11:43 2.30248 100.14694 29002 ft 500 kts 132°
2026-04-16 11:43 2.27991 100.17344 29255 ft 499 kts 133°
2026-04-16 11:44 2.25650 100.19905 29501 ft 498 kts 136°
2026-04-16 11:44 2.23225 100.22368 29741 ft 497 kts 137°
2026-04-16 11:44 2.20767 100.24796 29984 ft 497 kts 137°
2026-04-16 11:44 2.18308 100.27230 30228 ft 496 kts 137°
2026-04-16 11:45 2.15862 100.29662 30473 ft 496 kts 137°
2026-04-16 11:45 2.13421 100.32097 30718 ft 495 kts 137°
2026-04-16 11:45 2.10987 100.34531 30966 ft 495 kts 137°
2026-04-16 11:45 2.08558 100.36964 31215 ft 494 kts 137°
2026-04-16 11:46 2.06126 100.39403 31461 ft 494 kts 137°
2026-04-16 11:46 2.03710 100.41829 31707 ft 493 kts 137°
2026-04-16 11:46 2.01288 100.44263 31953 ft 493 kts 137°
2026-04-16 11:46 1.98868 100.46696 32198 ft 492 kts 137°
2026-04-16 11:47 1.96451 100.49128 32441 ft 492 kts 137°
2026-04-16 11:47 1.94037 100.51556 32683 ft 491 kts 137°
2026-04-16 11:47 1.91653 100.53954 32915 ft 491 kts 137°
2026-04-16 11:47 1.89254 100.56369 33152 ft 491 kts 137°
2026-04-16 11:48 1.86844 100.58794 33389 ft 490 kts 137°
2026-04-16 11:48 1.84446 100.61208 33625 ft 490 kts 137°
2026-04-16 11:48 1.82045 100.63624 33855 ft 489 kts 137°
2026-04-16 11:48 1.79641 100.66044 34088 ft 489 kts 137°
2026-04-16 11:49 1.77243 100.68457 34318 ft 488 kts 137°
2026-04-16 11:49 1.74848 100.70868 34545 ft 488 kts 137°
2026-04-16 11:49 1.72449 100.73282 34748 ft 488 kts 137°
2026-04-16 11:50 1.67682 100.78080 34753 ft 488 kts 137°
2026-04-16 11:50 1.62906 100.82886 34758 ft 487 kts 137°
2026-04-16 11:51 1.58133 100.87689 34758 ft 487 kts 137°
2026-04-16 11:51 1.53358 100.92494 34758 ft 487 kts 137°
2026-04-16 11:52 1.48581 100.97299 34758 ft 487 kts 137°
2026-04-16 11:52 1.43797 101.02113 34758 ft 487 kts 137°
2026-04-16 11:53 1.39050 101.06889 34758 ft 486 kts 137°
2026-04-16 11:53 1.34277 101.11690 34758 ft 486 kts 137°
2026-04-16 11:54 1.29504 101.16491 34758 ft 486 kts 137°
2026-04-16 11:54 1.24755 101.21267 34758 ft 486 kts 137°
2026-04-16 11:55 1.19977 101.26073 34758 ft 486 kts 137°
2026-04-16 11:55 1.15211 101.30866 34758 ft 486 kts 137°
2026-04-16 11:56 1.10473 101.35631 34758 ft 486 kts 137°
2026-04-16 11:56 1.05674 101.40458 34758 ft 486 kts 137°
2026-04-16 11:57 1.00926 101.45232 34758 ft 486 kts 137°
2026-04-16 11:57 0.96164 101.50020 34758 ft 486 kts 137°
2026-04-16 11:58 0.91397 101.54813 34758 ft 486 kts 137°
2026-04-16 11:58 0.86635 101.59601 34758 ft 486 kts 137°
2026-04-16 11:59 0.81869 101.64393 34758 ft 486 kts 137°
2026-04-16 11:59 0.77132 101.69156 34758 ft 486 kts 137°
2026-04-16 12:00 0.72358 101.73955 34758 ft 486 kts 137°
2026-04-16 12:00 0.67590 101.78749 34758 ft 486 kts 137°
2026-04-16 12:01 0.62829 101.83535 34758 ft 486 kts 137°
2026-04-16 12:01 0.58066 101.88323 34758 ft 486 kts 137°
2026-04-16 12:02 0.50935 101.95491 34758 ft 486 kts 137°
2026-04-16 12:02 0.46176 102.00275 34758 ft 486 kts 137°
2026-04-16 12:03 0.41589 102.04885 34758 ft 486 kts 137°
2026-04-16 12:03 0.36806 102.09694 34758 ft 486 kts 137°
2026-04-16 12:04 0.32040 102.14484 34758 ft 486 kts 137°
2026-04-16 12:04 0.27270 102.19279 34757 ft 486 kts 137°
2026-04-16 12:05 0.22512 102.24061 34758 ft 486 kts 137°
2026-04-16 12:05 0.17757 102.28840 34758 ft 486 kts 137°
2026-04-16 12:06 0.12996 102.33626 34758 ft 486 kts 137°
2026-04-16 12:06 0.08229 102.38417 34758 ft 486 kts 137°
2026-04-16 12:07 0.03463 102.43208 34758 ft 486 kts 137°
2026-04-16 12:07 -0.01300 102.47995 34758 ft 486 kts 137°
2026-04-16 12:08 -0.06058 102.52777 34758 ft 486 kts 137°
2026-04-16 12:08 -0.10828 102.57571 34758 ft 486 kts 137°
2026-04-16 12:09 -0.15593 102.62361 34758 ft 486 kts 137°
2026-04-16 12:09 -0.20327 102.67119 34758 ft 486 kts 137°
2026-04-16 12:10 -0.25095 102.71913 34758 ft 486 kts 137°
2026-04-16 12:10 -0.29862 102.76703 34758 ft 486 kts 137°
2026-04-16 12:11 -0.34636 102.81502 34758 ft 486 kts 137°
2026-04-16 12:11 -0.39369 102.86261 34758 ft 486 kts 137°
2026-04-16 12:12 -0.44140 102.91056 34758 ft 486 kts 137°
2026-04-16 12:12 -0.48908 102.95850 34758 ft 486 kts 137°
2026-04-16 12:13 -0.53678 103.00644 34758 ft 486 kts 137°
2026-04-16 12:13 -0.58446 103.05438 34758 ft 486 kts 137°
2026-04-16 12:14 -0.63001 103.10018 34758 ft 486 kts 137°
2026-04-16 12:14 -0.67670 103.14711 34758 ft 486 kts 137°
2026-04-16 12:15 -0.72397 103.19465 34758 ft 485 kts 137°
2026-04-16 12:15 -0.77173 103.24267 34758 ft 485 kts 137°
2026-04-16 12:16 -0.81937 103.29058 34758 ft 486 kts 137°
2026-04-16 12:16 -0.86705 103.33853 34758 ft 485 kts 137°
2026-04-16 12:17 -0.91567 103.38462 34758 ft 484 kts 142°
2026-04-16 12:17 -0.96803 103.42687 34758 ft 483 kts 144°
2026-04-16 12:18 -1.02054 103.46870 34758 ft 483 kts 143°
2026-04-16 12:18 -1.07300 103.51082 34758 ft 483 kts 143°
2026-04-16 12:19 -1.12545 103.55311 34758 ft 483 kts 143°
2026-04-16 12:19 -1.16905 103.58833 34758 ft 483 kts 143°
2026-04-16 12:20 -1.22145 103.63070 34758 ft 483 kts 143°
2026-04-16 12:20 -1.27354 103.67285 34757 ft 483 kts 143°
2026-04-16 12:21 -1.32573 103.71510 34758 ft 483 kts 143°
2026-04-16 12:21 -1.37812 103.75752 34758 ft 483 kts 143°
2026-04-16 12:22 -1.43037 103.79984 34758 ft 483 kts 143°
2026-04-16 12:22 -1.48269 103.84222 34758 ft 483 kts 143°
2026-04-16 12:23 -1.53493 103.88453 34758 ft 483 kts 143°
2026-04-16 12:23 -1.58688 103.92662 34758 ft 483 kts 143°
2026-04-16 12:24 -1.63913 103.96895 34758 ft 483 kts 143°
2026-04-16 12:24 -1.69146 104.01136 34758 ft 483 kts 143°
2026-04-16 12:25 -1.74370 104.05368 34758 ft 483 kts 143°
2026-04-16 12:25 -1.79603 104.09609 34758 ft 483 kts 143°
2026-04-16 12:26 -1.84789 104.13813 34758 ft 483 kts 143°
2026-04-16 12:26 -1.90015 104.18050 34758 ft 483 kts 143°
2026-04-16 12:27 -1.95244 104.22289 34758 ft 483 kts 143°
2026-04-16 12:27 -2.00466 104.26516 34758 ft 483 kts 143°
2026-04-16 12:28 -2.05704 104.30758 34758 ft 483 kts 143°
2026-04-16 12:28 -2.10928 104.34990 34758 ft 483 kts 143°
2026-04-16 12:29 -2.16156 104.39227 34758 ft 483 kts 143°
2026-04-16 12:29 -2.21346 104.43434 34758 ft 483 kts 143°
2026-04-16 12:30 -2.26573 104.47670 34758 ft 483 kts 143°
2026-04-16 12:30 -2.31794 104.51902 34756 ft 483 kts 143°
2026-04-16 12:31 -2.37018 104.56136 34757 ft 483 kts 143°
2026-04-16 12:31 -2.42249 104.60377 34758 ft 483 kts 143°
2026-04-16 12:32 -2.47472 104.64613 34758 ft 483 kts 143°
2026-04-16 12:32 -2.52662 104.68822 34758 ft 483 kts 143°
2026-04-16 12:33 -2.57884 104.73057 34758 ft 483 kts 143°
2026-04-16 12:33 -2.63126 104.77309 34758 ft 483 kts 143°
2026-04-16 12:34 -2.68321 104.81524 34758 ft 483 kts 143°
2026-04-16 12:34 -2.73609 104.85815 34758 ft 483 kts 143°
2026-04-16 12:35 -2.78831 104.90052 34758 ft 483 kts 143°
2026-04-16 12:35 -2.84044 104.94283 34758 ft 483 kts 143°
2026-04-16 12:36 -2.89276 104.98530 34758 ft 483 kts 143°
2026-04-16 12:36 -2.94493 105.02766 34758 ft 483 kts 143°
2026-04-16 12:37 -2.99725 105.07014 34758 ft 483 kts 143°
2026-04-16 12:37 -3.04947 105.11253 34758 ft 483 kts 143°
2026-04-16 12:38 -3.10136 105.15468 34758 ft 483 kts 143°
2026-04-16 12:38 -3.15360 105.19713 34758 ft 483 kts 143°
2026-04-16 12:39 -3.20579 105.23954 34758 ft 483 kts 143°
2026-04-16 12:39 -3.25773 105.28177 34758 ft 483 kts 143°
2026-04-16 12:40 -3.30939 105.32484 34758 ft 483 kts 142°
2026-04-16 12:40 -3.36098 105.36792 34758 ft 483 kts 142°
2026-04-16 12:41 -3.41268 105.41109 34758 ft 483 kts 142°
2026-04-16 12:41 -3.46435 105.45426 34758 ft 483 kts 142°
2026-04-16 12:42 -3.51593 105.49737 34758 ft 483 kts 142°
2026-04-16 12:42 -3.56757 105.54051 34758 ft 483 kts 142°
2026-04-16 12:43 -3.61924 105.58364 34758 ft 483 kts 142°
2026-04-16 12:43 -3.67094 105.62679 34757 ft 483 kts 142°
2026-04-16 12:44 -3.72241 105.66978 34758 ft 483 kts 142°
2026-04-16 12:44 -3.77398 105.71286 34758 ft 483 kts 142°
2026-04-16 12:45 -3.82560 105.75600 34758 ft 483 kts 142°
2026-04-16 12:45 -3.87720 105.79910 34758 ft 483 kts 142°
2026-04-16 12:46 -3.92874 105.84216 34758 ft 483 kts 142°
2026-04-16 12:46 -3.98044 105.88537 34758 ft 483 kts 142°
2026-04-16 12:47 -4.03204 105.92851 34758 ft 483 kts 142°
2026-04-16 12:47 -4.08368 105.97169 34758 ft 483 kts 142°
2026-04-16 12:48 -4.13531 106.01487 34758 ft 483 kts 142°
2026-04-16 12:48 -4.18655 106.05774 34758 ft 483 kts 142°
2026-04-16 12:49 -4.23823 106.10098 34758 ft 483 kts 142°
2026-04-16 12:49 -4.28979 106.14412 34758 ft 483 kts 142°
2026-04-16 12:50 -4.34133 106.18727 34758 ft 483 kts 142°
2026-04-16 12:50 -4.39296 106.23049 34758 ft 483 kts 142°
2026-04-16 12:51 -4.44424 106.27343 34758 ft 483 kts 142°
2026-04-16 12:51 -4.49590 106.31669 34758 ft 483 kts 142°
2026-04-16 12:52 -4.54744 106.35987 34758 ft 483 kts 142°
2026-04-16 12:52 -4.59905 106.40312 34758 ft 483 kts 142°
2026-04-16 12:53 -4.65063 106.44633 34758 ft 483 kts 142°
2026-04-16 12:53 -4.70214 106.48950 34758 ft 483 kts 142°
2026-04-16 12:54 -4.75345 106.53253 34758 ft 483 kts 142°
2026-04-16 12:54 -4.80502 106.57579 34758 ft 483 kts 142°
2026-04-16 12:55 -4.85962 106.61411 34757 ft 478 kts 156°
2026-04-16 12:55 -4.92213 106.63511 34758 ft 472 kts 171°
2026-04-16 12:56 -4.98667 106.64733 34758 ft 471 kts 173°
2026-04-16 12:56 -5.05081 106.65896 34757 ft 471 kts 173°
2026-04-16 12:57 -5.11532 106.67083 34758 ft 471 kts 172°
2026-04-16 12:57 -5.17997 106.68281 34758 ft 471 kts 172°
2026-04-16 12:58 -5.23354 106.69276 34758 ft 471 kts 172°
2026-04-16 12:58 -5.29808 106.70478 34758 ft 471 kts 172°
2026-04-16 12:59 -5.36263 106.71682 34758 ft 471 kts 172°
2026-04-16 13:00 -5.45897 106.73481 34225 ft 471 kts 172°
2026-04-16 13:00 -5.49130 106.74085 33975 ft 472 kts 172°
2026-04-16 13:00 -5.52348 106.74686 33726 ft 472 kts 172°
2026-04-16 13:00 -5.55594 106.75293 33475 ft 473 kts 172°
2026-04-16 13:01 -5.58836 106.75899 33225 ft 473 kts 172°
2026-04-16 13:01 -5.62072 106.76504 32975 ft 474 kts 172°
2026-04-16 13:01 -5.65308 106.77109 32725 ft 471 kts 172°
2026-04-16 13:01 -5.68538 106.77713 32440 ft 469 kts 172°
2026-04-16 13:02 -5.71729 106.78310 31975 ft 463 kts 172°
2026-04-16 13:02 -5.74846 106.78893 31474 ft 459 kts 172°
2026-04-16 13:02 -5.77951 106.79474 30971 ft 456 kts 172°
2026-04-16 13:02 -5.81081 106.80060 30464 ft 452 kts 172°
2026-04-16 13:03 -5.84167 106.80637 29962 ft 449 kts 172°
2026-04-16 13:03 -5.87226 106.81210 29468 ft 446 kts 172°
2026-04-16 13:03 -5.90266 106.81779 28985 ft 443 kts 173°
2026-04-16 13:03 -5.93281 106.82343 28503 ft 439 kts 173°
2026-04-16 13:04 -5.96272 106.82903 28022 ft 436 kts 173°
2026-04-16 13:04 -5.99264 106.83463 27538 ft 433 kts 173°
2026-04-16 13:04 -6.02214 106.84015 27061 ft 430 kts 173°
2026-04-16 13:04 -6.05149 106.84565 26597 ft 427 kts 173°
2026-04-16 13:05 -6.08067 106.85111 26138 ft 424 kts 173°
2026-04-16 13:05 -6.10957 106.85653 25675 ft 421 kts 173°
2026-04-16 13:05 -6.11052 106.85671 25660 ft 421 kts 173°
2026-04-16 13:06 -6.11573 106.85768 25577 ft 420 kts 173°
2026-04-16 13:07 -6.14465 106.86310 25130 ft 417 kts 173°
2026-04-16 13:07 -6.17314 106.86844 24669 ft 414 kts 173°
2026-04-16 13:07 -6.20134 106.87373 24216 ft 411 kts 173°
2026-04-16 13:07 -6.22940 106.87899 23763 ft 408 kts 173°
2026-04-16 13:08 -6.25709 106.88491 23313 ft 407 kts 169°
2026-04-16 13:08 -6.28408 106.89341 22863 ft 406 kts 163°
2026-04-16 13:08 -6.31019 106.90464 22417 ft 406 kts 158°
2026-04-16 13:08 -6.33548 106.91708 21973 ft 403 kts 157°
2026-04-16 13:09 -6.36060 106.92940 21534 ft 401 kts 157°
2026-04-16 13:09 -6.38517 106.94165 21097 ft 399 kts 154°
2026-04-16 13:09 -6.40842 106.95689 20659 ft 400 kts 146°
2026-04-16 13:09 -6.42919 106.97549 20225 ft 400 kts 137°
2026-04-16 13:10 -6.44816 106.99608 19791 ft 398 kts 134°
2026-04-16 13:10 -6.46618 107.01701 19476 ft 392 kts 127°
2026-04-16 13:10 -6.48380 107.03770 19096 ft 389 kts 128°
2026-04-16 13:10 -6.50143 107.05827 18621 ft 388 kts 128°
2026-04-16 13:11 -6.51907 107.07877 18187 ft 386 kts 128°
2026-04-16 13:11 -6.53664 107.09914 17762 ft 384 kts 128°
2026-04-16 13:11 -6.55409 107.11932 17241 ft 379 kts 128°
2026-04-16 13:11 -6.57114 107.13904 16578 ft 378 kts 128°
2026-04-16 13:12 -6.58833 107.15889 15892 ft 377 kts 128°
2026-04-16 13:12 -6.60569 107.17893 15089 ft 379 kts 129°
2026-04-16 13:12 -6.62302 107.19895 14290 ft 381 kts 129°
2026-04-16 13:12 -6.64047 107.21905 13489 ft 382 kts 129°
2026-04-16 13:13 -6.65804 107.23926 12686 ft 382 kts 129°
2026-04-16 13:13 -6.67556 107.25941 11885 ft 383 kts 129°
2026-04-16 13:13 -6.69305 107.27954 11084 ft 382 kts 130°
2026-04-16 13:13 -6.71043 107.29955 10288 ft 381 kts 130°
2026-04-16 13:14 -6.71849 107.30884 9917 ft 381 kts 130°
2026-04-16 13:14 -6.73517 107.32805 9159 ft 379 kts 130°
2026-04-16 13:14 -6.75216 107.34764 8653 ft 370 kts 130°
2026-04-16 13:15 -6.76876 107.36679 8244 ft 358 kts 131°
2026-04-16 13:15 -6.78485 107.38533 7866 ft 345 kts 131°
2026-04-16 13:15 -6.80039 107.40326 7489 ft 335 kts 131°
2026-04-16 13:15 -6.81551 107.42070 7111 ft 325 kts 131°
2026-04-16 13:16 -6.83016 107.43761 6735 ft 317 kts 131°
2026-04-16 13:16 -6.84453 107.45417 6357 ft 309 kts 131°
2026-04-16 13:16 -6.85779 107.46954 5998 ft 303 kts 130°
2026-04-16 13:16 -6.86855 107.48399 5673 ft 297 kts 124°
2026-04-16 13:17 -6.87870 107.50181 5305 ft 291 kts 116°
2026-04-16 13:17 -6.88665 107.52011 5063 ft 281 kts 112°
2026-04-16 13:17 -6.89399 107.53811 4819 ft 271 kts 113°
2026-04-16 13:17 -6.90255 107.55464 4577 ft 262 kts 121°
2026-04-16 13:18 -6.91282 107.56910 4483 ft 247 kts 130°
2026-04-16 13:18 -6.92405 107.58144 4469 ft 231 kts 135°
2026-04-16 13:18 -6.93505 107.59256 4454 ft 217 kts 135°
2026-04-16 13:18 -6.94539 107.60317 4482 ft 207 kts 135°
2026-04-16 13:19 -6.95522 107.61337 4517 ft 200 kts 135°
2026-04-16 13:19 -6.96484 107.62346 4506 ft 199 kts 134°
2026-04-16 13:19 -6.97428 107.63342 4495 ft 195 kts 134°
2026-04-16 13:19 -6.98351 107.64320 4495 ft 194 kts 134°
2026-04-16 13:20 -6.99293 107.65321 4502 ft 195 kts 134°
2026-04-16 13:20 -7.00217 107.66304 4493 ft 193 kts 134°
2026-04-16 13:20 -7.00878 107.67473 4396 ft 199 kts 101°
2026-04-16 13:20 -7.00576 107.68765 4414 ft 186 kts 54°
2026-04-16 13:21 -6.99598 107.69531 4526 ft 174 kts 25°
2026-04-16 13:21 -6.98532 107.70041 4521 ft 167 kts 24°
2026-04-16 13:21 -6.97519 107.70569 4524 ft 160 kts 25°
2026-04-16 13:21 -6.96546 107.71080 4508 ft 154 kts 24°
2026-04-16 13:22 -6.95543 107.71324 4444 ft 151 kts 350°
2026-04-16 13:22 -6.94756 107.70719 4491 ft 146 kts 306°
2026-04-16 13:22 -6.94281 107.69812 4598 ft 149 kts 295°
2026-04-16 13:22 -6.93906 107.68848 4566 ft 148 kts 290°
2026-04-16 13:23 -6.93567 107.67864 4418 ft 150 kts 289°
2026-04-16 13:23 -6.93230 107.66880 4214 ft 148 kts 289°
2026-04-16 13:23 -6.92899 107.65910 4010 ft 146 kts 289°
2026-04-16 13:23 -6.92572 107.64955 3817 ft 143 kts 289°
2026-04-16 13:24 -6.92250 107.64015 3635 ft 143 kts 289°
2026-04-16 13:24 -6.91931 107.63053 3405 ft 146 kts 289°
2026-04-16 13:24 -6.91601 107.62093 3142 ft 145 kts 289°
2026-04-16 13:24 -6.91283 107.61176 2952 ft 136 kts 290°
2026-04-16 13:25 -6.90976 107.60293 2760 ft 131 kts 290°
2026-04-16 13:25 -6.90686 107.59439 2602 ft 131 kts 289°
2026-04-16 13:25 -6.90388 107.58558 2464 ft 135 kts 289°
2026-04-16 13:25 -6.90111 107.57753 2438 ft 86 kts 287°
2026-04-16 13:26 -6.90001 107.57424 2438 ft 38 kts 288°
2026-04-16 13:26 -6.89929 107.57212 2438 ft 25 kts 289°
2026-04-16 13:26 -6.89893 107.57108 2438 ft 19 kts 289°
2026-04-16 13:27 -6.90784 107.59719 2658 ft 130 kts 289°
2026-04-16 13:27 -6.90701 107.59481 2610 ft 131 kts 289°
2026-04-16 13:27 -6.90401 107.58597 2468 ft 135 kts 289°
2026-04-16 13:27 -6.90119 107.57780 2438 ft 89 kts 287°
2026-04-16 13:28 -6.90006 107.57439 2438 ft 38 kts 288°
2026-04-16 13:28 -6.90370 107.58508 2458 ft 136 kts 289°
2026-04-16 13:28 -6.89894 107.57112 2438 ft 19 kts 289°
2026-04-16 13:28 -6.90527 107.58965 2529 ft 133 kts 289°
2026-04-16 13:29 -6.90219 107.58081 2438 ft 126 kts 288°
2026-04-16 13:29 -6.90040 107.57542 2438 ft 39 kts 289°
2026-04-16 13:29 -6.89888 107.57095 2438 ft 19 kts 289°
2026-04-16 13:29 -6.89881 107.57030 2438 ft 6 kts 255°
2026-04-16 13:30 -6.89872 107.57007 2438 ft 4 kts 333°
2026-04-16 13:30 -6.89849 107.57018 2438 ft 5 kts 74°
2026-04-16 13:30 -6.89878 107.57068 2438 ft 12 kts 125°
2026-04-16 13:30 -6.89912 107.57162 2438 ft 17 kts 108°
2026-04-16 13:31 -6.89956 107.57292 2438 ft 22 kts 109°
2026-04-16 13:31 -6.90008 107.57440 2438 ft 18 kts 109°
2026-04-16 13:31 -6.90053 107.57574 2438 ft 23 kts 108°
2026-04-16 13:31 -6.90092 107.57687 2438 ft 4 kts 109°
2026-04-16 13:32 -6.90107 107.57730 2438 ft 9 kts 109°
2026-04-16 13:32 -6.90139 107.57757 2438 ft 7 kts 176°
2026-04-16 13:32 -6.90196 107.57739 2438 ft 11 kts 200°
2026-04-16 13:32 -6.90257 107.57719 2438 ft 6 kts 194°
2026-04-16 13:33 -6.90293 107.57734 2438 ft 6 kts 97°
2026-04-16 13:33 -6.90283 107.57783 2438 ft 5 kts 79°
2026-04-16 13:33 -6.90283 107.57835 2438 ft 7 kts 97°
2026-04-16 13:33 -6.90288 107.57880 2438 ft 5 kts 97°
2026-04-16 13:34 -6.90292 107.57913 2438 ft 5 kts 97°
2026-04-16 13:34 -6.90295 107.57934 2438 ft 2 kts 97°
2026-04-16 13:34 -6.90299 107.57944 2438 ft 1 kts 129°
2026-04-16 13:34 -6.90308 107.57949 2438 ft 0 kts 166°
2026-04-16 13:35 -6.90315 107.57949 2438 ft 2 kts 189°
2026-04-16 13:35 -6.90318 107.57948 2438 ft 0 kts 194°